WESTFORD NEEDLES, 2378

Orbit data source: Space-Track

WESTFORD NEEDLES, 2378 is space debris in LEO originally from a launch on Thu, 09 May 1963 UTC launched from the Air Force Western Test Range (AFWTR). Debris objects in space refer to the collection of defunct objects orbiting the Earth. Examples of debris include non-operational satellites, rocket bodies, and fragments generated from explosions, collisions, or faulty payload assembly.

Loading next visibility...
WESTFORD NEEDLES details
Identifier
2378, 1963-014Y
Orbit
LEO
Last TLE update6 days ago
Origin
Flag of USUSAF SSD (US)
ManufacturerUnknown
MissionSpacecraft
Bus & MotorUnknown
MassUnknown
Launch date (UTC)
1963-05-09 (62 years ago)
Launch vehicleUnknown
Launch site
Air Force Western Test Range (AFWTR)
Object type
Payload
Rocket body
Debris
Shape & HBRUnknown
Radar Cross SectionMedium (>0.1 m² and <1 m²)

Expand to show TLE details & history

TLE from 6 days ago
0 WESTFORD NEEDLES
1 02378U 63014Y   25030.45096432 -.00000031  00000-0 -15755-1 0  9997
2 02378  87.3611 205.6495 0035098 286.7151  72.9854  8.66572949951932
Epoch: 2025-01-30T10:49Z
Definitive object data (Epoch: 2025-01-30T10:49:23.317Z)
Latitude0.00001°
Longitude-86.62549°
Altitude3,626.132 km
Speed6.316 km/s
True Right ascension13h 42m 35s
True Declination0° 00' 00"
Sunlit
Object was in daylight at TLE epoch
Visualization TLE readout
Latitude73.97408°
Longitude83.61734°
Altitude3,681.84 km
Speed6.29 km/s
Apparent Right ascension23h 43m 25s
Apparent Declination36° 55' 37"
Sunlit
Object is in daylight
Visualization observer readout
Local Sidereal Time10:58:31
Azimuth350.831° N
Elevation-12.468°
Doppler factor1
Orbital elements
Apogee altitude3,667.069 km
Perigee altitude3,596.802 km
Semi-major axis10,010.073 km
Eccentricity0.0035098
Inclination87.3611°
RAAN205.6495°
Arg. of periapsis286.7151°
True anomaly73.37048°
Mean anomaly72.9854°
Eccentric anomaly73.17789°
Mean motion2.16714 °/min
BSTAR-0.015755
Orbital period166.12 mins
Loading maneuver chart data...

WESTFORD NEEDLES Visibility forecast

Observer location: undefined°, undefined

Span
Click to sort rows by Start time (UTC) header in descending order
Start Az.
Max El. time (UTC)
Max El. Az.
Max El.
End time (UTC)
End Az.
36 mins2025-02-05 10:53:56.968Z162.581° S2025-02-05 11:11:56.968Z80.204° E43.581°2025-02-05 11:29:56.968Z4.571° NNE
31 mins2025-02-05 13:44:56.968Z233.785° WSW2025-02-05 13:59:56.968Z291.707° WNW28.522°2025-02-05 14:15:56.968Z352.297° N
22 mins2025-02-05 20:00:56.968Z17.927° NNE2025-02-05 20:10:56.968Z52.763° ENE17.417°2025-02-05 20:22:56.968Z94.35° ESE
36 mins2025-02-05 22:44:56.968Z359.868° N2025-02-05 23:02:56.968Z87.773° E44.342°2025-02-05 23:20:56.968Z174.41° S
27 mins2025-02-06 01:32:56.968Z344.658° N2025-02-06 01:45:56.968Z297.049° NW26.647°2025-02-06 01:59:56.968Z245.019° WSW
|